Location: Newark
(44.1667°N, 8.2500°E)
Time: 20:31:41
(UTC+00:00)

Envisat - Pass Details

Date: 18 November 2019
Orbit: 764 x 766 km, 98.1° (Epoch: 11 December)

Event Time Altitude Azimuth Distance (km) Brightness Sun altitude
Rises 04:57:22 0° 32° (NNE) 3,240 6.5 -15.8°
Reaches altitude 10° 05:00:51 10° 57° (ENE) 2,307 6.1 -15.2°
Maximum altitude 05:03:31 14° 89° (E) 2,022 6.3 -14.7°
Drops below altitude 10° 05:06:10 10° 121° (ESE) 2,298 6.7 -14.2°
Sets 05:09:36 0° 145° (SE) 3,217 7.0 -13.6°
